Pagrindinis puslapis
METAR-TAF:

METAR-TAF

Oro uostai :

Hemavan, Švedija

platuma: 65-48-22N, ilguma: 015-04-58E, Aukštis: 458 m

Dabartinis oras

Ataskaita buvo paskelbta 26 minutes, ne 21:20 UTC
Vėjas 5 kt iš Pietų/Pietryčių
Temperatūra 11°C
Drėgmė 94%
Slėgis 1011 hPa
Matomumas 10 km arba daugiau

METAR: ESUT 162120Z AUTO 15005KT 9999 BKN020/// BKN026/// OVC094/// 11/10 Q1011

Laikas: 23:46 (21:46 UTC)


TAF: trūkstamas

Orai ataskaitas ir orų prognozės (METAR, TAF).

turimą stotys yra geltonos ir raudonos taškus žemėlapyje.

Perkelti pele per norėdami pamatyti stoties vardą.

Tada spustelėkite, norėdami matyti oro stebėjimo ir prognozės.

Norėdami pakeisti žemėlapį: spustelėkite ant žalios mygtukų su juodo kryžiaus žemyn,; žalią mygtuką su brūkšneliu, jei norite nutolinti; arba žalių rodyklių gretimoms žemėlapius.


METAR-TAF: